Regional Weather Roundup
Issued by NWS

Home | Current Version | Previous Version | Text Only | Print | Product List | Glossary Off
Versions: 1 2 3 4 5 6 7 8 9 10 11 12 13 14 15 16 17 18 19 20 21 22 23 24 25 26 27 28 29 30 31 32 33 34 35 36 37 38 39 40 41 42 43 44 45 46 47 48 49 50

000
ASUS43 KLSX 300310
RWRMO

WEATHER SUMMARY FOR MISSOURI
NATIONAL WEATHER SERVICE SPRINGFIELD MO
1000 PM CDT THU SEP 29 2016

NOTE: "FAIR" INDICATES FEW OR NO CLOUDS BELOW 12,000 FEET WITH NO
       SIGNIFICANT WEATHER AND/OR OBSTRUCTIONS TO VISIBILITY.
       CURRENT SKY AND/OR WEATHER CONDITIONS ARE NOT AVAILABLE FOR
       CHILLICOTHE AND FARMINGTON.

MOZ001>031-035>038-043-044-053-054-300400-
...NORTHERN AND WESTERN MISSOURI...

CITY           SKY/WX    TMP DP  RH WIND       PRES   REMARKS
KANSAS CTY INT CLEAR     58  47  66 N7        30.30R
KANSAS C DTWN  CLEAR     62  50  64 N6        30.29R
LEE`S SUMMIT   CLEAR     60  49  66 N6        30.29S
ST JOSEPH      CLEAR     52  49  89 CALM      30.31R
CHILLICOTHE      N/A     60  51  72 CALM      30.29R
KIRKSVILLE     CLEAR     59  47  64 N8        30.26S

$$
MOZ066>068-077>081-088>096-101>105-300400-
...SOUTHWEST MISSOURI...

CITY           SKY/WX    TMP DP  RH WIND       PRES   REMARKS
SPRINGFIELD    CLEAR     57  47  69 NW6       30.25R
JOPLIN         CLEAR     54  50  86 N3        30.28R
BRANSON        PTCLDY    57  48  72 NW5       30.26S

$$
MOZ032>034-039>042-045>050-055>058-069>072-300400-
...CENTRAL MISSOURI...

CITY           SKY/WX    TMP DP  RH WIND       PRES   REMARKS
COLUMBIA       CLOUDY    65  51  60 N12       30.22S
JEFFERSON CITY CLOUDY    65  52  62 NW7       30.21R
ROLLA          CLOUDY    63  53  70 NW6       30.19S
SEDALIA        CLEAR     60  50  69 NW7       30.26S
WHITEMAN AFB   CLEAR     59  51  74 NW9       30.25S
OSAGE BEACH    CLEAR     62  52  69 N5        30.23S

$$
MOZ051-052-059>065-300400-
...EAST CENTRAL MISSOURI...

CITY           SKY/WX    TMP DP  RH WIND       PRES   REMARKS
ST LOUIS INTL  LGT RAIN  63  58  83 N7        30.19R
SPIRIT OF STL  CLOUDY    64  58  80 NE7       30.18S
ST CHARLES     CLOUDY    62  60  93 N9        30.18S

$$
MOZ072>076-082>087-097>100-106>115-300400-
...SOUTH CENTRAL AND SOUTHEAST MISSOURI...

CITY           SKY/WX    TMP DP  RH WIND       PRES   REMARKS
CAPE GIRARDEAU CLOUDY    58  56  93 CALM      30.14F
FARMINGTON     LGT RAIN  60  57  89 N5        30.18S
POPLAR BLUFF   MOCLDY    62  57  83 N6        30.16S
WEST PLAINS    CLEAR     60  51  72 NW6       30.22S

$$



USA.gov is the U.S. government's official web portal to all federal, state and local government web resources and services.